Temperature
16 16 16 16 16 16 16 15 15 15 15 15 15 15 15 15 15 15 15 15 15 15 15 15 15 15 15 15 15 15 15 15 15 15 15 15 15 15 15 15 15 15 15
16 16 16 16 16 16 15 15 15 15 15 15 15 15 15 15 15 15 15 15 15 15 15 15 15 15 15 15 15 15 15 15 15 15 15 15 15 15 14 14 15 15 15
16 16 16 16 16 15 15 15 15 15 14 14 15 14 14 14 15 15 15 15 14 14 15 15 15 15 15 15 15 15 15 14 14 14 14 14 14 14 14 14 14 15 14
15 15 15 15 15 15 15 15 15 15 15 14 14 14 14 14 14 15 15 14 14 15 14 14 15 15 15 15 15 14 14 14 14 13 13 14 14 14 14 14 14 14 14
15 15 15 15 15 15 15 15 15 14 14 14 14 14 14 14 14 14 14 14 14 14 14 14 14 14 14 14 14 14 14 14 13 13 13 13 14 14 14 14 14 14 14
14 14 15 15 15 15 15 15 14 14 14 14 14 14 14 14 14 14 14 14 14 14 14 14 14 14 14 14 14 14 14 13 13 13 13 13 13 14 14 14 14 14 14
14 14 15 14 15 15 15 14 14 14 14 14 14 14 14 14 14 14 14 14 14 14 14 14 14 14 14 14 14 14 13 13 13 13 13 13 13 13 13 13 13 13 13
14 14 14 14 14 14 14 14 14 14 14 14 14 14 14 14 14 14 14 14 14 14 14 14 14 14 14 14 14 13 13 13 12 12 13 13 13 13 13 13 13 13 13
13 14 14 14 14 14 14 14 14 14 14 14 14 14 14 14 14 14 14 14 14 14 14 14 14 14 14 13 13 13 13 12 12 12 12 13 13 13 13 13 13 13 13
13 13 13 13 13 13 14 13 14 14 14 14 14 14 14 14 14 14 14 14 14 14 14 14 14 14 13 13 13 12 12 12 12 12 12 12 12 12 12 12 12 12 12
12 12 13 13 13 13 13 13 13 13 13 13 13 13 13 13 13 14 14 13 13 13 13 13 13 13 13 13 12 12 12 12 12 12 12 12 12 12 12 12 12 12 12
12 12 12 12 12 12 13 13 13 13 13 13 13 13 13 13 13 13 13 13 13 13 13 13 13 13 12 12 12 12 12 12 12 12 12 11 11 12 12 12 12 12 12
11 11 11 12 12 12 12 13 13 13 13 13 13 13 13 13 13 13 13 13 13 13 13 13 12 12 12 12 12 12 11 11 11 12 11 11 11 11 11 11 11 11 11
11 11 11 12 12 12 12 12 12 12 12 12 12 12 13 13 12 12 12 13 13 13 12 12 12 12 12 12 11 11 11 11 11 11 11 11 11 11 11 11 11 11 11
11 11 11 11 11 12 12 12 12 12 12 12 12 12 12 12 12 12 12 12 12 12 12 12 12 12 11 11 11 11 11 11 11 11 11 11 11 11 11 11 10 10 10
11 11 11 11 11 12 12 12 12 12 12 12 12 12 12 12 12 12 12 12 12 12 12 11 11 11 11 11 11 11 11 11 11 11 11 11 11 11 11 10 10 10 10
10 11 11 11 11 11 11 11 11 11 12 12 12 12 12 12 12 12 11 11 12 11 11 11 11 11 11 11 11 11 10 10 10 10 10 11 11 11 11 10 10 10 10
10 10 10 10 11 11 11 11 11 11 11 11 12 12 12 12 11 11 11 11 11 11 11 11 11 11 11 10 10 10 10 10 10 10 10 10 10 10 10 10 10 10 10
10 10 10 10 10 11 11 10 10 11 11 11 11 11 11 11 11 11 11 11 11 11 11 11 11 11 10 10 10 10 10 10 10 10 10 10 10 10 10 10 10 9 9
10 10 10 10 10 10 10 10 10 10 10 10 11 11 11 11 11 11 11 11 10 10 10 10 10 10 10 10 10 9 9 9 9 9 9 9 9 9 9 9 9 9 9
10 10 10 10 10 10 10 10 10 10 10 10 10 10 10 10 10 10 10 10 10 10 10 10 10 10 10 9 9 9 9 9 9 9 9 9 9 9 9 9 9 9 9
10 10 10 10 10 10 10 10 10 10 10 10 10 10 10 10 10 10 10 10 10 10 10 10 10 9 9 9 9 9 8 8 8 8 8 8 8 8 8 8 8 8 8
10 10 9 9 10 10 10 10 9 9 9 9 9 10 10 10 10 10 10 10 10 9 9 9 9 9 9 9 9 9 8 8 8 8 8 8 8 8 8 8 8 8 8
10 10 9 9 9 9 9 9 9 9 9 10 10 10 9 9 9 10 10 9 9 9 9 9 9 9 9 9 8 8 8 8 8 7 7 7 7 7 7 7 7 7 7
9 10 9 9 9 9 9 9 9 9 9 9 9 9 9 9 9 9 9 9 9 9 9 9 8 8 8 8 8 8 8 8 8 7 7 7 7 7 7 7 7 7 6
9 9 9 9 9 9 9 9 9 9 9 9 9 9 9 9 9 9 9 9 9 9 8 8 8 8 8 8 8 8 8 8 7 7 7 6 6 6 6 6 6 6 6
Wind_Speed
7 10 12 10 9 8 8 8 7 7 7 8 8 8 9 9 9 9 9 8 9 9 9 10 10 10 10 11 11 12 11 11 11 11 12 12 12 12 11 10 11 11 12
8 11 12 10 9 8 8 8 7 7 7 7 8 8 8 8 8 8 8 8 8 8 9 10 10 11 11 11 11 11 10 9 9 9 10 11 12 12 13 13 12 10 11
8 11 11 10 9 8 7 7 7 7 7 8 8 7 7 8 8 7 7 7 7 8 8 10 10 11 11 11 11 10 9 8 6 6 7 9 12 13 13 13 12 12 12
8 10 10 10 9 8 7 7 7 7 7 8 7 7 7 7 7 7 7 7 7 8 9 10 11 11 11 11 10 9 7 6 5 4 6 10 12 12 12 12 12 12 12
7 9 9 10 9 8 7 7 6 7 7 7 7 7 7 7 7 7 7 7 7 9 10 10 11 11 11 10 10 8 6 4 5 5 10 14 13 12 12 12 12 12 13
6 8 9 9 9 8 7 7 7 7 6 6 7 7 7 7 7 7 7 7 8 9 10 11 11 11 11 10 9 7 5 5 5 7 12 14 11 11 12 12 12 12 12
5 7 8 9 9 8 8 7 7 7 6 6 6 7 7 7 7 7 7 8 8 9 10 10 11 11 10 10 8 6 6 6 5 10 14 13 11 11 11 11 11 11 11
5 6 7 8 9 9 8 8 7 7 7 6 6 6 7 7 7 8 8 8 8 9 10 10 11 10 10 9 8 6 6 6 7 11 14 13 11 11 11 11 11 11 11
4 5 6 7 7 8 8 8 7 7 7 7 6 6 7 7 7 8 8 8 8 9 10 10 10 10 9 8 6 5 6 7 8 11 13 11 11 11 11 11 12 12 12
3 4 4 6 6 7 7 8 8 8 8 7 7 7 7 7 7 8 7 8 8 9 10 10 10 9 8 7 5 5 5 6 9 13 12 11 12 12 12 12 12 13 13
2 3 3 4 4 5 7 8 8 8 8 8 7 7 7 7 7 7 8 8 8 9 10 9 8 8 7 6 5 4 4 5 11 12 12 11 11 11 12 12 12 12 12
0 0 2 3 3 4 6 8 8 7 8 8 7 7 6 6 8 8 8 9 9 9 9 8 7 7 6 5 4 4 4 6 10 12 11 11 11 11 11 11 12 11 11
0 0 1 2 3 3 4 6 6 7 7 7 8 6 6 7 7 8 7 8 8 8 6 6 6 5 5 5 5 5 5 6 10 12 11 11 10 10 10 10 11 11 11
1 0 1 1 3 3 3 3 4 5 4 4 6 7 6 4 4 5 5 6 7 6 4 5 4 5 5 6 6 6 5 7 11 12 11 11 10 10 10 10 10 10 11
2 1 0 1 2 3 2 3 4 4 4 5 5 6 7 4 3 4 4 4 5 6 4 4 4 5 4 5 5 6 6 7 11 12 11 11 10 10 9 9 9 10 11
3 2 1 1 2 2 1 1 3 4 5 6 5 5 6 6 4 4 4 3 4 4 4 4 4 4 4 4 4 6 6 8 10 12 11 11 11 10 9 9 9 10 10
3 3 2 1 2 3 1 1 2 4 6 5 5 6 6 6 5 4 3 3 3 4 4 5 5 4 3 3 4 5 6 7 9 10 10 10 10 10 10 9 9 9 10
4 4 3 2 2 3 2 1 2 3 5 5 6 6 6 6 6 5 4 3 4 4 3 3 3 3 3 3 3 3 4 5 7 9 9 9 9 8 9 10 10 9 9
4 4 3 3 3 2 3 2 2 3 4 5 6 6 6 6 6 6 4 4 4 3 2 2 3 3 3 3 3 3 3 3 4 6 8 9 8 8 8 8 9 9 8
5 4 4 3 2 2 3 3 2 2 2 4 5 6 7 6 6 6 5 5 5 2 2 2 3 3 3 3 3 3 3 3 3 4 5 7 7 7 6 6 6 6 6
5 5 4 4 3 3 3 3 3 2 2 2 3 6 7 6 6 6 4 4 4 3 3 3 3 4 3 3 3 2 2 2 3 3 3 4 5 5 5 5 5 5 5
4 5 5 4 4 3 2 2 3 3 2 2 2 4 6 6 6 6 5 4 4 3 3 3 3 3 2 2 3 3 2 0 0 2 2 2 3 4 4 4 4 4 5
4 5 5 5 5 4 3 2 4 3 2 2 2 2 3 5 6 6 6 5 5 4 4 3 3 4 4 2 1 3 3 3 1 1 2 2 3 2 2 4 4 4 4
4 4 5 5 5 5 5 4 5 4 4 3 3 3 2 4 5 6 6 5 5 4 4 4 3 3 4 3 1 1 2 3 3 1 1 1 2 2 2 2 3 3 4
4 4 4 4 4 4 5 5 5 4 3 3 4 4 3 3 4 6 6 5 4 4 4 4 3 3 3 4 2 1 1 1 2 3 2 1 1 1 2 2 3 3 4
4 4 4 5 4 5 5 5 6 6 5 6 5 5 3 2 3 4 6 5 5 4 4 4 4 4 3 3 3 2 2 2 2 2 2 2 1 2 1 2 3 4 4
Wind_Direction
110 120 124 119 118 115 109 106 107 109 112 112 110 106 104 100 98 95 93 91 91 93 92 90 89 87 83 81 79 79 78 78 79 79 77 75 73 69 64 64 67 69 71
116 122 125 119 117 118 116 111 106 106 111 113 111 109 109 107 104 102 101 99 98 97 96 93 90 87 85 86 84 82 81 81 83 86 84 80 74 68 65 66 70 71 72
112 121 127 123 117 117 118 114 112 108 108 112 112 111 110 110 108 106 104 105 103 100 99 96 92 90 87 86 85 83 82 80 81 83 88 92 81 73 70 71 72 72 73
111 123 129 130 127 123 121 123 120 117 112 114 113 111 110 112 112 110 111 109 105 104 102 98 95 93 90 88 87 87 83 70 53 51 74 85 82 76 74 72 72 75 74
103 115 129 134 134 131 128 127 124 123 116 117 120 116 116 116 114 109 108 107 105 106 104 100 98 94 93 91 89 85 74 47 31 44 69 78 79 78 75 72 72 74 74
102 112 133 140 140 135 133 135 132 128 125 121 127 128 124 121 118 112 109 108 108 109 106 104 102 98 95 93 89 79 55 37 25 61 76 77 76 78 77 73 73 73 72
110 114 136 144 143 141 139 137 138 134 133 128 131 136 130 125 121 117 111 109 111 113 112 109 107 102 97 93 86 70 42 24 54 69 74 73 73 77 77 74 72 71 71
113 116 135 146 145 146 144 146 144 143 140 137 135 138 136 130 127 122 114 112 112 114 115 113 110 106 102 95 85 66 39 26 54 75 76 72 72 78 77 74 72 72 71
108 115 129 142 143 147 146 148 146 145 144 141 138 135 133 131 129 127 121 119 119 116 116 115 113 109 106 97 83 65 42 37 42 69 77 70 72 78 80 78 74 73 72
107 117 134 142 142 143 145 148 144 145 140 141 140 136 136 137 136 134 127 123 122 117 115 116 117 115 109 100 88 70 37 40 59 69 73 72 75 77 80 79 75 73 72
78 123 143 144 141 144 150 147 139 143 144 144 150 153 155 151 142 127 127 128 128 122 119 121 126 128 123 110 95 76 50 64 76 71 69 75 80 81 82 80 77 76 74
75 170 150 149 145 144 154 149 150 154 158 161 164 174 170 143 134 131 134 138 137 131 128 132 142 141 135 123 106 84 59 73 84 78 69 76 80 84 83 82 80 78 77
176 229 117 140 132 127 142 161 156 155 168 164 165 164 129 126 138 141 137 143 143 144 141 139 148 136 123 107 101 90 67 72 83 81 70 77 78 82 84 84 83 81 79
185 265 101 139 133 136 152 149 145 150 158 150 161 155 137 133 140 141 146 155 151 145 142 141 132 128 122 114 109 105 90 82 90 89 75 76 78 81 84 86 85 84 82
178 174 359 141 141 148 150 158 155 152 152 144 150 153 141 133 138 131 127 136 136 140 145 132 122 119 109 106 109 103 95 92 98 99 89 78 78 80 81 84 87 87 84
179 163 141 158 143 133 147 181 148 144 146 139 146 148 143 141 134 128 115 117 118 128 137 126 116 111 109 100 101 94 90 89 96 103 103 88 79 79 80 82 85 87 85
176 162 153 180 143 137 148 185 137 142 142 140 146 147 145 138 138 130 120 120 117 123 119 109 105 101 110 107 103 96 87 91 96 100 105 102 90 79 80 85 88 87 83
170 159 154 158 142 147 140 138 122 137 137 137 140 141 141 140 139 126 118 114 123 119 111 120 120 113 106 106 102 92 92 88 97 103 101 99 97 92 86 86 84 85 84
158 150 149 129 130 149 135 120 111 122 124 131 136 138 144 144 143 128 122 123 126 118 119 137 114 120 115 105 103 89 84 90 94 100 101 100 100 103 102 96 90 84 82
146 142 132 114 120 136 135 123 107 114 122 125 127 135 141 148 149 134 135 139 134 127 129 124 118 104 113 122 106 87 79 95 95 99 107 107 108 108 110 112 109 96 85
139 142 143 141 140 142 148 147 145 162 149 131 132 140 143 148 146 139 141 142 138 144 153 147 127 117 105 109 105 98 63 85 107 109 105 112 111 112 111 108 109 109 99
154 153 157 159 159 163 167 164 151 148 152 142 126 133 145 148 150 148 141 141 132 134 133 133 131 135 134 126 135 136 138 92 309 133 115 125 129 126 121 116 112 108 102
167 168 174 174 171 165 151 139 132 124 123 136 147 143 142 148 150 148 147 143 142 144 147 145 153 149 156 170 144 142 150 177 157 156 172 145 139 137 143 137 132 125 115
179 173 173 173 174 170 158 161 163 159 165 174 160 146 143 148 149 150 149 146 144 143 147 153 160 156 148 166 171 93 124 133 135 145 244 183 162 157 153 136 133 134 128
169 166 173 169 177 174 169 171 179 172 162 145 142 144 151 151 152 152 151 147 146 146 149 153 156 155 146 152 153 140 109 80 108 140 181 219 229 206 162 154 150 147 143
156 156 169 171 179 180 179 178 185 179 164 154 153 157 157 158 158 152 148 148 149 147 148 153 153 151 148 142 141 135 136 140 158 146 164 183 211 230 207 172 165 159 156
Height
1511 1512 1513 1514 1515 1517 1518 1519 1520 1521 1522 1523 1524 1525 1525 1526 1527 1527 1528 1529 1529 1530 1531 1531 1532 1533 1533 1534 1535 1536 1536 1537 1538 1539 1539 1540 1540 1540 1541 1541 1541 1542 1543
1510 1511 1513 1514 1515 1516 1517 1519 1520 1521 1522 1523 1524 1525 1526 1526 1527 1528 1528 1529 1530 1531 1531 1532 1532 1533 1534 1534 1535 1536 1537 1538 1539 1540 1540 1541 1541 1541 1542 1542 1543 1543 1543
1510 1511 1512 1513 1515 1516 1517 1518 1519 1521 1522 1523 1524 1525 1526 1526 1527 1528 1529 1529 1530 1531 1532 1532 1533 1533 1534 1535 1536 1537 1538 1539 1540 1541 1541 1541 1542 1542 1543 1543 1543 1544 1544
1510 1511 1512 1513 1514 1515 1516 1518 1519 1520 1521 1522 1524 1525 1525 1526 1527 1528 1529 1530 1530 1531 1532 1532 1533 1534 1535 1535 1537 1538 1539 1540 1541 1541 1542 1543 1543 1543 1543 1544 1544 1544 1545
1509 1510 1511 1512 1513 1514 1516 1517 1518 1520 1521 1522 1523 1524 1525 1526 1527 1528 1529 1530 1531 1531 1532 1533 1534 1534 1535 1536 1537 1538 1540 1541 1542 1542 1543 1543 1543 1544 1544 1544 1544 1545 1545
1509 1509 1510 1511 1513 1514 1515 1516 1517 1519 1520 1521 1522 1524 1525 1526 1527 1528 1528 1530 1531 1532 1532 1533 1534 1535 1535 1536 1537 1539 1540 1542 1542 1543 1543 1543 1544 1544 1544 1544 1545 1545 1546
1508 1508 1509 1510 1511 1513 1514 1515 1516 1518 1519 1520 1522 1523 1524 1525 1526 1528 1529 1530 1531 1532 1533 1533 1534 1535 1536 1537 1538 1539 1541 1542 1543 1543 1543 1544 1544 1544 1545 1545 1545 1546 1546
1507 1507 1508 1509 1510 1511 1513 1514 1515 1517 1518 1519 1521 1522 1523 1525 1526 1527 1528 1529 1531 1532 1533 1534 1534 1535 1536 1537 1539 1540 1541 1542 1543 1544 1544 1544 1545 1545 1545 1545 1546 1546 1547
1506 1506 1507 1508 1509 1510 1511 1513 1514 1515 1517 1518 1520 1521 1523 1524 1525 1527 1528 1529 1531 1532 1533 1534 1535 1535 1537 1538 1539 1541 1542 1543 1543 1544 1544 1544 1545 1545 1545 1546 1546 1546 1547
1505 1505 1506 1506 1508 1508 1510 1511 1513 1514 1516 1517 1519 1520 1522 1523 1525 1526 1527 1529 1530 1531 1532 1533 1535 1536 1537 1538 1540 1541 1542 1543 1544 1544 1544 1545 1545 1546 1546 1546 1546 1547 1547
1504 1504 1504 1504 1505 1506 1508 1509 1511 1513 1514 1516 1517 1519 1520 1522 1523 1525 1527 1528 1529 1531 1532 1533 1535 1536 1537 1538 1540 1541 1542 1543 1544 1544 1544 1545 1545 1546 1546 1546 1547 1547 1547
1502 1502 1503 1503 1504 1505 1506 1508 1509 1511 1513 1514 1516 1518 1519 1521 1522 1524 1526 1527 1529 1530 1532 1533 1534 1536 1537 1538 1540 1541 1542 1543 1543 1544 1544 1545 1546 1546 1546 1547 1547 1547 1547
1500 1500 1501 1502 1502 1503 1504 1506 1507 1509 1511 1513 1514 1516 1518 1520 1521 1523 1524 1526 1528 1529 1531 1532 1534 1535 1536 1538 1539 1541 1542 1543 1543 1543 1544 1545 1545 1546 1546 1547 1547 1547 1547
1498 1498 1499 1499 1500 1501 1502 1504 1505 1507 1509 1511 1513 1514 1516 1518 1520 1521 1523 1525 1526 1528 1530 1531 1533 1535 1536 1537 1539 1540 1541 1542 1543 1543 1544 1545 1545 1546 1546 1547 1547 1547 1547
1496 1496 1496 1497 1498 1500 1501 1502 1503 1505 1507 1509 1511 1513 1515 1516 1518 1520 1522 1524 1525 1527 1529 1530 1532 1534 1535 1537 1538 1540 1541 1542 1542 1543 1544 1544 1545 1545 1546 1546 1547 1547 1547
1494 1494 1495 1495 1496 1497 1498 1500 1501 1503 1505 1507 1509 1511 1513 1514 1516 1518 1520 1522 1524 1525 1528 1529 1531 1533 1534 1536 1537 1539 1540 1541 1542 1542 1543 1544 1544 1545 1545 1546 1546 1547 1547
1491 1491 1492 1493 1494 1495 1496 1497 1499 1501 1503 1505 1507 1509 1511 1512 1514 1516 1518 1520 1522 1524 1526 1528 1530 1532 1533 1535 1536 1538 1539 1540 1541 1541 1542 1543 1543 1544 1545 1545 1546 1546 1546
1489 1489 1490 1491 1492 1493 1494 1495 1497 1499 1501 1503 1505 1507 1508 1511 1512 1514 1516 1519 1521 1522 1525 1526 1528 1530 1532 1534 1535 1537 1538 1539 1540 1540 1541 1542 1543 1543 1544 1545 1545 1545 1546
1486 1487 1488 1488 1490 1491 1493 1494 1496 1498 1500 1501 1503 1505 1507 1509 1511 1512 1514 1517 1520 1521 1523 1525 1526 1528 1530 1532 1534 1535 1536 1538 1539 1539 1540 1541 1542 1543 1543 1544 1544 1545 1545
1484 1484 1485 1486 1488 1489 1491 1492 1494 1496 1498 1500 1501 1503 1505 1507 1509 1511 1513 1515 1518 1519 1521 1523 1524 1526 1528 1530 1532 1533 1535 1536 1537 1538 1539 1540 1541 1542 1542 1542 1543 1543 1544
1481 1482 1483 1484 1485 1487 1488 1489 1491 1493 1496 1498 1499 1501 1503 1505 1507 1509 1510 1513 1515 1517 1519 1521 1523 1524 1526 1528 1530 1532 1533 1535 1536 1537 1538 1538 1539 1540 1541 1541 1541 1542 1542
1479 1480 1480 1482 1483 1484 1486 1487 1490 1492 1494 1496 1498 1499 1501 1503 1505 1506 1508 1510 1512 1515 1516 1518 1520 1522 1524 1526 1528 1529 1531 1534 1534 1535 1536 1537 1538 1538 1539 1539 1540 1540 1540
1476 1477 1478 1479 1481 1482 1484 1486 1487 1490 1492 1493 1495 1497 1499 1501 1503 1504 1506 1508 1510 1512 1514 1516 1518 1520 1521 1523 1525 1527 1528 1529 1531 1533 1534 1535 1535 1536 1537 1537 1538 1538 1538
1474 1475 1476 1477 1479 1480 1481 1483 1484 1485 1488 1490 1492 1494 1497 1499 1500 1502 1504 1506 1507 1510 1512 1513 1515 1517 1519 1521 1522 1523 1525 1526 1528 1530 1532 1532 1533 1534 1535 1535 1535 1536 1536
1473 1473 1474 1475 1476 1478 1479 1481 1482 1484 1486 1488 1490 1492 1494 1496 1498 1499 1501 1503 1505 1507 1509 1511 1513 1514 1516 1518 1519 1521 1522 1524 1525 1526 1527 1529 1531 1531 1532 1533 1533 1533 1533
1471 1471 1472 1473 1474 1475 1476 1478 1480 1482 1483 1485 1487 1489 1492 1494 1495 1497 1499 1501 1502 1504 1506 1508 1510 1512 1513 1515 1517 1518 1519 1521 1522 1523 1524 1526 1527 1529 1529 1529 1529 1530 1530